Time,TemperatureF,DewpointF,PressureIn,WindDirection,WindDirectionDegrees,WindSpeedMPH,WindSpeedGustMPH,Humidity,HourlyPrecipIn,Conditions,Clouds,dailyrainin,SoftwareType,DateUTC
2013-08-09 00:01:00,65.2,55.2,30.01,SSE,158,0.9,4.0,70,0.00,,,0.00,WUHU216HW,2013-08-09 05:01:00,
2013-08-09 00:06:00,65.2,55.2,30.01,SSE,158,1.8,3.4,70,0.00,,,0.00,WUHU216HW,2013-08-09 05:06:00,
2013-08-09 00:11:00,65.0,55.0,30.01,SSE,158,0.4,2.0,70,0.00,,,0.00,WUHU216HW,2013-08-09 05:11:00,
2013-08-09 00:16:00,64.6,54.7,30.02,SSE,158,1.1,1.8,70,0.00,,,0.00,WUHU216HW,2013-08-09 05:16:00,
2013-08-09 00:21:00,64.4,54.9,30.02,SE,135,0.9,2.0,71,0.00,,,0.00,WUHU216HW,2013-08-09 05:21:00,
2013-08-09 00:26:00,64.4,54.9,30.01,SE,135,0.9,2.0,71,0.00,,,0.00,WUHU216HW,2013-08-09 05:26:00,
2013-08-09 00:31:00,64.3,55.1,30.01,SSE,158,0.2,1.8,72,0.00,,,0.00,WUHU216HW,2013-08-09 05:31:00,
2013-08-09 00:36:00,64.1,54.9,30.01,SE,135,0.9,1.8,72,0.00,,,0.00,WUHU216HW,2013-08-09 05:36:00,
2013-08-09 00:41:00,63.9,54.7,30.02,SSE,158,1.6,1.8,72,0.00,,,0.00,WUHU216HW,2013-08-09 05:41:00,
2013-08-09 00:46:00,63.7,54.9,30.01,SSE,158,1.1,1.8,73,0.00,,,0.00,WUHU216HW,2013-08-09 05:46:00,
2013-08-09 00:51:00,63.7,54.9,30.01,SSE,158,0.9,2.0,73,0.00,,,0.00,WUHU216HW,2013-08-09 05:51:00,
2013-08-09 00:56:00,63.9,54.7,30.01,SSE,158,0.7,2.5,72,0.00,,,0.00,WUHU216HW,2013-08-09 05:56:00,
2013-08-09 01:01:00,63.9,54.4,30.01,SSE,158,0.7,2.5,71,0.00,,,0.00,WUHU216HW,2013-08-09 06:01:00,
2013-08-09 01:06:00,63.9,54.4,30.01,South,180,0.4,1.1,71,0.00,,,0.00,WUHU216HW,2013-08-09 06:06:00,
2013-08-09 01:11:00,63.7,54.2,30.01,SSW,203,1.8,1.8,71,0.00,,,0.00,WUHU216HW,2013-08-09 06:11:00,
2013-08-09 01:16:00,63.9,54.4,30.01,SE,135,0.4,1.8,71,0.00,,,0.00,WUHU216HW,2013-08-09 06:16:00,
2013-08-09 01:21:00,63.7,54.2,30.01,WSW,248,1.8,1.8,71,0.00,,,0.00,WUHU216HW,2013-08-09 06:21:00,
2013-08-09 01:26:00,63.7,54.2,30.01,WSW,248,0.4,2.0,71,0.00,,,0.00,WUHU216HW,2013-08-09 06:26:00,
2013-08-09 01:31:00,63.7,54.5,30.01,West,270,0.0,2.0,72,0.00,,,0.00,WUHU216HW,2013-08-09 06:31:00,
2013-08-09 01:36:00,63.7,54.5,30.01,South,180,0.2,1.8,72,0.00,,,0.00,WUHU216HW,2013-08-09 06:36:00,
2013-08-09 01:41:00,63.5,54.4,30.01,SE,135,0.4,1.3,72,0.00,,,0.00,WUHU216HW,2013-08-09 06:41:00,
2013-08-09 01:46:00,63.5,54.4,30.01,SSE,158,0.9,0.9,72,0.00,,,0.00,WUHU216HW,2013-08-09 06:46:00,
2013-08-09 01:51:00,63.4,54.2,30.00,SSE,158,0.4,1.1,72,0.00,,,0.00,WUHU216HW,2013-08-09 06:51:00,
2013-08-09 01:56:00,63.2,54.0,30.00,SE,135,0.4,1.3,72,0.00,,,0.00,WUHU216HW,2013-08-09 06:56:00,
2013-08-09 02:01:00,63.2,53.6,30.00,SSW,203,0.0,1.3,71,0.00,,,0.00,WUHU216HW,2013-08-09 07:01:00,
2013-08-09 02:06:00,63.2,53.6,30.00,SSW,203,0.0,1.3,71,0.00,,,0.00,WUHU216HW,2013-08-09 07:06:00,
2013-08-09 02:11:00,63.0,53.5,30.00,South,180,0.0,1.1,71,0.00,,,0.00,WUHU216HW,2013-08-09 07:11:00,
2013-08-09 02:16:00,62.8,53.3,30.00,South,180,0.0,1.6,71,0.00,,,0.00,WUHU216HW,2013-08-09 07:16:00,
2013-08-09 02:21:00,62.6,53.1,30.01,SW,225,0.0,1.6,71,0.00,,,0.00,WUHU216HW,2013-08-09 07:21:00,
2013-08-09 02:26:00,62.5,52.9,30.00,SW,225,0.0,0.4,71,0.00,,,0.00,WUHU216HW,2013-08-09 07:26:00,
2013-08-09 02:31:00,62.3,53.1,30.01,SW,225,0.0,0.0,72,0.00,,,0.00,WUHU216HW,2013-08-09 07:31:00,
2013-08-09 02:36:00,61.9,52.8,30.00,SW,225,0.0,0.0,72,0.00,,,0.00,WUHU216HW,2013-08-09 07:36:00,
2013-08-09 02:41:00,61.7,52.7,30.00,SW,225,0.0,0.0,72,0.00,,,0.00,WUHU216HW,2013-08-09 07:41:00,
2013-08-09 02:46:00,61.6,52.5,30.00,SW,225,0.0,0.0,72,0.00,,,0.00,WUHU216HW,2013-08-09 07:46:00,
2013-08-09 02:51:00,61.4,52.3,30.00,NW,315,0.0,0.0,72,0.00,,,0.00,WUHU216HW,2013-08-09 07:51:00,
2013-08-09 02:56:00,60.7,52.4,30.00,NNW,338,0.0,1.3,74,0.00,,,0.00,WUHU216HW,2013-08-09 07:56:00,
2013-08-09 03:01:00,60.1,52.6,30.00,NNW,338,0.0,1.3,76,0.00,,,0.00,WUHU216HW,2013-08-09 08:01:00,
2013-08-09 03:06:00,59.8,52.9,30.01,NNW,338,0.0,0.0,78,0.00,,,0.00,WUHU216HW,2013-08-09 08:06:00,
2013-08-09 03:11:00,59.6,52.4,30.01,NNW,338,0.0,0.0,77,0.00,,,0.00,WUHU216HW,2013-08-09 08:11:00,
2013-08-09 03:16:00,59.6,52.4,30.01,NNW,338,0.0,0.0,77,0.00,,,0.00,WUHU216HW,2013-08-09 08:16:00,
2013-08-09 03:21:00,59.4,52.2,30.01,NNW,338,0.0,0.0,77,0.00,,,0.00,WUHU216HW,2013-08-09 08:21:00,
2013-08-09 03:26:00,59.4,52.6,30.01,NNW,338,0.0,0.0,78,0.00,,,0.00,WUHU216HW,2013-08-09 08:26:00,
2013-08-09 03:31:00,59.4,52.9,30.01,NNW,338,0.0,0.0,79,0.00,,,0.00,WUHU216HW,2013-08-09 08:31:00,
2013-08-09 03:36:00,59.4,52.9,30.01,NNW,338,0.0,0.0,79,0.00,,,0.00,WUHU216HW,2013-08-09 08:36:00,
2013-08-09 03:41:00,59.2,52.7,30.01,NNW,338,0.0,0.0,79,0.00,,,0.00,WUHU216HW,2013-08-09 08:41:00,
2013-08-09 03:46:00,59.2,52.7,30.00,NNW,338,0.0,0.0,79,0.00,,,0.00,WUHU216HW,2013-08-09 08:46:00,
2013-08-09 03:51:00,58.9,52.4,30.00,NNW,338,0.0,0.0,79,0.00,,,0.00,WUHU216HW,2013-08-09 08:51:00,
2013-08-09 03:56:00,58.7,52.2,30.01,NNW,338,0.0,0.0,79,0.00,,,0.00,WUHU216HW,2013-08-09 08:56:00,
2013-08-09 04:01:00,58.7,52.2,30.00,NNW,338,0.0,0.0,79,0.00,,,0.00,WUHU216HW,2013-08-09 09:01:00,
2013-08-09 04:06:00,58.7,52.2,30.00,NNW,338,0.0,0.0,79,0.00,,,0.00,WUHU216HW,2013-08-09 09:06:00,
2013-08-09 04:11:00,58.7,52.2,30.00,NNW,338,0.0,0.0,79,0.00,,,0.00,WUHU216HW,2013-08-09 09:11:00,
2013-08-09 04:16:00,58.5,52.4,30.00,NNW,338,0.0,0.0,80,0.00,,,0.00,WUHU216HW,2013-08-09 09:16:00,
2013-08-09 04:21:00,58.5,52.4,30.00,NNW,338,0.0,0.0,80,0.00,,,0.00,WUHU216HW,2013-08-09 09:21:00,
2013-08-09 04:26:00,58.5,52.4,30.00,NNW,338,0.0,0.0,80,0.00,,,0.00,WUHU216HW,2013-08-09 09:26:00,
2013-08-09 04:31:00,58.7,52.9,30.00,NNW,338,0.0,0.0,81,0.00,,,0.00,WUHU216HW,2013-08-09 09:31:00,
2013-08-09 04:36:00,58.7,52.9,30.00,NNW,338,0.0,0.0,81,0.00,,,0.00,WUHU216HW,2013-08-09 09:36:00,
2013-08-09 04:41:00,59.0,53.3,30.00,NNW,338,0.0,0.0,81,0.00,,,0.00,WUHU216HW,2013-08-09 09:41:00,
2013-08-09 04:46:00,59.2,53.5,30.00,NNW,338,0.0,0.0,81,0.00,,,0.00,WUHU216HW,2013-08-09 09:46:00,
2013-08-09 04:51:00,59.4,53.7,30.00,NNW,338,0.0,0.0,81,0.00,,,0.00,WUHU216HW,2013-08-09 09:51:00,
2013-08-09 04:56:00,59.8,54.0,30.00,NNW,338,0.0,0.0,81,0.00,,,0.00,WUHU216HW,2013-08-09 09:56:00,
2013-08-09 05:01:00,59.8,54.0,30.01,NNW,338,0.0,0.0,81,0.00,,,0.00,WUHU216HW,2013-08-09 10:01:00,
2013-08-09 05:06:00,59.8,54.0,30.01,NNW,338,0.0,0.0,81,0.00,,,0.00,WUHU216HW,2013-08-09 10:06:00,
2013-08-09 05:11:00,59.8,54.6,30.01,NNW,338,0.0,0.0,83,0.00,,,0.00,WUHU216HW,2013-08-09 10:11:00,
2013-08-09 05:16:00,59.9,54.5,30.01,NNW,338,0.0,0.0,82,0.00,,,0.00,WUHU216HW,2013-08-09 10:16:00,
2013-08-09 05:21:00,60.1,54.4,30.01,NNW,338,0.0,0.0,81,0.00,,,0.00,WUHU216HW,2013-08-09 10:21:00,
2013-08-09 05:26:00,60.3,54.6,30.01,ENE,68,0.4,0.4,81,0.00,,,0.00,WUHU216HW,2013-08-09 10:26:00,
2013-08-09 05:31:00,60.5,54.7,30.00,ENE,68,0.0,0.4,81,0.00,,,0.00,WUHU216HW,2013-08-09 10:31:00,
2013-08-09 05:36:00,60.8,54.7,30.00,ENE,68,0.0,0.4,80,0.00,,,0.00,WUHU216HW,2013-08-09 10:36:00,
2013-08-09 05:41:00,60.8,54.7,30.00,ENE,68,0.0,0.0,80,0.00,,,0.00,WUHU216HW,2013-08-09 10:41:00,
2013-08-09 05:46:00,60.8,54.4,30.01,ENE,68,0.0,0.0,79,0.00,,,0.00,WUHU216HW,2013-08-09 10:46:00,
2013-08-09 05:51:00,60.8,54.4,30.01,ENE,68,0.0,0.0,79,0.00,,,0.00,WUHU216HW,2013-08-09 10:51:00,
2013-08-09 05:56:00,60.8,54.4,30.01,ENE,68,0.0,0.7,79,0.00,,,0.00,WUHU216HW,2013-08-09 10:56:00,
2013-08-09 06:01:00,60.8,54.4,30.01,ENE,68,0.0,0.7,79,0.00,,,0.00,WUHU216HW,2013-08-09 11:01:00,
2013-08-09 06:06:00,60.8,54.4,30.01,ENE,68,0.0,0.0,79,0.00,,,0.00,WUHU216HW,2013-08-09 11:06:00,
2013-08-09 06:11:00,60.8,54.7,30.01,ENE,68,0.0,0.0,80,0.00,,,0.00,WUHU216HW,2013-08-09 11:11:00,
2013-08-09 06:16:00,60.8,54.7,30.01,ENE,68,0.0,0.0,80,0.00,,,0.00,WUHU216HW,2013-08-09 11:16:00,
2013-08-09 06:21:00,60.8,54.7,30.00,ENE,68,0.0,0.0,80,0.00,,,0.00,WUHU216HW,2013-08-09 11:21:00,
2013-08-09 06:26:00,61.0,54.9,30.01,ENE,68,0.0,0.0,80,0.00,,,0.00,WUHU216HW,2013-08-09 11:26:00,
2013-08-09 06:31:00,61.0,54.9,30.01,ENE,68,0.0,0.0,80,0.00,,,0.00,WUHU216HW,2013-08-09 11:31:00,
2013-08-09 06:36:00,61.0,54.6,30.01,ENE,68,0.0,0.0,79,0.00,,,0.00,WUHU216HW,2013-08-09 11:36:00,
2013-08-09 06:41:00,61.0,54.6,30.01,ENE,68,0.0,0.0,79,0.00,,,0.00,WUHU216HW,2013-08-09 11:41:00,
2013-08-09 06:46:00,61.9,56.1,30.01,ENE,68,0.0,0.0,81,0.00,,,0.00,WUHU216HW,2013-08-09 11:46:00,
2013-08-09 06:51:00,63.2,56.9,30.01,ENE,68,0.0,0.0,80,0.00,,,0.00,WUHU216HW,2013-08-09 11:51:00,
2013-08-09 06:56:00,65.2,58.2,30.01,ENE,68,0.0,0.0,78,0.00,,,0.00,WUHU216HW,2013-08-09 11:56:00,
2013-08-09 07:01:00,66.4,58.2,30.02,ENE,68,0.0,0.2,75,0.00,,,0.00,WUHU216HW,2013-08-09 12:01:00,
2013-08-09 07:06:00,66.4,57.9,30.02,West,270,0.7,1.1,74,0.00,,,0.00,WUHU216HW,2013-08-09 12:06:00,
2013-08-09 07:11:00,65.9,57.3,30.02,West,270,0.4,1.3,74,0.00,,,0.00,WUHU216HW,2013-08-09 12:11:00,
2013-08-09 07:16:00,66.2,57.7,30.02,West,270,0.4,1.3,74,0.00,,,0.00,WUHU216HW,2013-08-09 12:16:00,
2013-08-09 07:21:00,66.6,58.1,30.02,WNW,293,0.0,1.8,74,0.00,,,0.00,WUHU216HW,2013-08-09 12:21:00,
2013-08-09 07:26:00,67.1,58.2,30.01,WNW,293,1.3,2.0,73,0.00,,,0.00,WUHU216HW,2013-08-09 12:26:00,
2013-08-09 07:31:00,67.9,58.5,30.01,West,270,0.0,2.0,72,0.00,,,0.00,WUHU216HW,2013-08-09 12:31:00,
2013-08-09 07:36:00,67.7,58.8,30.01,West,270,1.8,2.2,73,0.00,,,0.00,WUHU216HW,2013-08-09 12:36:00,
2013-08-09 07:41:00,67.7,59.1,30.01,SW,225,2.5,2.9,74,0.00,,,0.00,WUHU216HW,2013-08-09 12:41:00,
2013-08-09 07:46:00,68.0,59.5,30.01,West,270,1.6,2.9,74,0.00,,,0.00,WUHU216HW,2013-08-09 12:46:00,
2013-08-09 07:51:00,67.9,59.7,30.01,West,270,2.9,3.6,75,0.00,,,0.00,WUHU216HW,2013-08-09 12:51:00,
2013-08-09 07:56:00,68.0,59.9,30.01,SSW,203,4.9,4.9,75,0.00,,,0.00,WUHU216HW,2013-08-09 12:56:00,
2013-08-09 08:01:00,68.2,60.4,30.01,WSW,248,2.7,4.9,76,0.00,,,0.00,WUHU216HW,2013-08-09 13:01:00,
2013-08-09 08:06:00,68.2,60.4,30.01,WSW,248,1.1,4.7,76,0.00,,,0.00,WUHU216HW,2013-08-09 13:06:00,
2013-08-09 08:11:00,68.6,60.8,30.01,WNW,293,1.8,4.9,76,0.00,,,0.00,WUHU216HW,2013-08-09 13:11:00,
2013-08-09 08:16:00,68.8,60.8,30.01,WSW,248,1.1,4.9,76,0.00,,,0.00,WUHU216HW,2013-08-09 13:16:00,
2013-08-09 08:21:00,69.1,61.2,30.01,West,270,2.0,3.4,76,0.00,,,0.00,WUHU216HW,2013-08-09 13:21:00,
2013-08-09 08:26:00,69.7,61.7,30.01,WSW,248,1.1,3.8,76,0.00,,,0.00,WUHU216HW,2013-08-09 13:26:00,
2013-08-09 08:31:00,70.2,61.5,30.01,West,270,3.4,3.8,74,0.00,,,0.00,WUHU216HW,2013-08-09 13:31:00,
2013-08-09 08:36:00,70.4,62.0,30.01,WNW,293,3.4,4.0,75,0.00,,,0.00,WUHU216HW,2013-08-09 13:36:00,
2013-08-09 08:41:00,70.9,62.2,30.00,West,270,2.9,4.3,74,0.00,,,0.00,WUHU216HW,2013-08-09 13:41:00,
2013-08-09 08:46:00,70.9,62.2,30.01,WNW,293,3.8,4.7,74,0.00,,,0.00,WUHU216HW,2013-08-09 13:46:00,
2013-08-09 08:51:00,71.3,62.2,30.01,NW,315,3.4,5.4,73,0.00,,,0.00,WUHU216HW,2013-08-09 13:51:00,
2013-08-09 08:56:00,71.6,61.7,30.01,West,270,3.4,6.9,71,0.00,,,0.00,WUHU216HW,2013-08-09 13:56:00,
2013-08-09 09:01:00,72.0,62.5,30.00,West,270,4.3,6.9,72,0.00,,,0.00,WUHU216HW,2013-08-09 14:01:00,
2013-08-09 09:06:00,72.4,62.8,30.01,WNW,293,5.1,6.5,72,0.00,,,0.00,WUHU216HW,2013-08-09 14:06:00,
2013-08-09 09:11:00,72.7,62.8,30.01,West,270,1.8,5.8,71,0.00,,,0.00,WUHU216HW,2013-08-09 14:11:00,
2013-08-09 09:16:00,72.7,62.8,30.01,WNW,293,2.5,5.1,71,0.00,,,0.00,WUHU216HW,2013-08-09 14:16:00,
2013-08-09 09:21:00,72.5,62.6,30.01,West,270,2.7,4.7,71,0.00,,,0.00,WUHU216HW,2013-08-09 14:21:00,
2013-08-09 09:26:00,73.1,63.5,30.01,West,270,3.6,4.7,72,0.00,,,0.00,WUHU216HW,2013-08-09 14:26:00,
2013-08-09 09:31:00,73.4,63.5,30.01,WNW,293,1.6,5.4,71,0.00,,,0.00,WUHU216HW,2013-08-09 14:31:00,
2013-08-09 09:36:00,73.4,63.2,30.01,West,270,2.2,5.4,70,0.00,,,0.00,WUHU216HW,2013-08-09 14:36:00,
2013-08-09 09:41:00,73.6,62.9,30.01,WNW,293,2.5,6.0,69,0.00,,,0.00,WUHU216HW,2013-08-09 14:41:00,
2013-08-09 09:46:00,73.8,63.6,30.01,West,270,2.5,6.0,70,0.00,,,0.00,WUHU216HW,2013-08-09 14:46:00,
2013-08-09 09:51:00,74.0,63.6,30.01,WNW,293,3.4,6.0,70,0.00,,,0.00,WUHU216HW,2013-08-09 14:51:00,
2013-08-09 09:56:00,74.0,63.2,30.01,WNW,293,2.9,6.0,69,0.00,,,0.00,WUHU216HW,2013-08-09 14:56:00,
2013-08-09 10:01:00,73.6,63.7,30.01,WNW,293,3.4,4.9,71,0.00,,,0.00,WUHU216HW,2013-08-09 15:01:00,
2013-08-09 10:06:00,73.6,63.4,30.01,West,270,4.0,4.5,70,0.00,,,0.00,WUHU216HW,2013-08-09 15:06:00,
2013-08-09 10:11:00,73.3,63.0,30.01,WNW,293,5.6,6.5,70,0.00,,,0.00,WUHU216HW,2013-08-09 15:11:00,
2013-08-09 10:16:00,72.9,62.2,30.01,WNW,293,4.5,7.2,69,0.00,,,0.00,WUHU216HW,2013-08-09 15:16:00,
2013-08-09 10:21:00,72.4,62.5,30.02,West,270,1.8,7.2,71,0.00,,,0.00,WUHU216HW,2013-08-09 15:21:00,
2013-08-09 10:26:00,72.0,62.1,30.02,West,270,4.7,6.7,71,0.00,,,0.00,WUHU216HW,2013-08-09 15:26:00,
2013-08-09 10:31:00,72.0,62.1,30.02,NW,315,3.8,6.7,71,0.00,,,0.00,WUHU216HW,2013-08-09 15:31:00,
2013-08-09 10:36:00,72.2,62.6,30.02,West,270,3.1,6.3,72,0.00,,,0.00,WUHU216HW,2013-08-09 15:36:00,
2013-08-09 10:41:00,72.4,62.8,30.02,NW,315,4.3,6.5,72,0.00,,,0.00,WUHU216HW,2013-08-09 15:41:00,
2013-08-09 10:46:00,72.7,63.6,30.02,WNW,293,4.0,6.5,73,0.00,,,0.00,WUHU216HW,2013-08-09 15:46:00,
2013-08-09 10:51:00,72.7,63.2,30.02,NW,315,5.1,6.0,72,0.00,,,0.00,WUHU216HW,2013-08-09 15:51:00,
2013-08-09 10:56:00,73.1,63.5,30.02,WSW,248,1.1,6.9,72,0.00,,,0.00,WUHU216HW,2013-08-09 15:56:00,
2013-08-09 11:01:00,73.4,63.5,30.02,WSW,248,3.4,6.9,71,0.00,,,0.00,WUHU216HW,2013-08-09 16:01:00,
2013-08-09 11:06:00,73.3,63.4,30.02,WNW,293,2.5,5.4,71,0.00,,,0.00,WUHU216HW,2013-08-09 16:06:00,
2013-08-09 11:11:00,73.3,63.4,30.02,WSW,248,3.1,5.4,71,0.00,,,0.00,WUHU216HW,2013-08-09 16:11:00,
2013-08-09 11:16:00,73.8,63.9,30.02,NNW,338,3.8,4.9,71,0.00,,,0.00,WUHU216HW,2013-08-09 16:16:00,
2013-08-09 11:21:00,74.5,64.2,30.01,WSW,248,4.0,4.9,70,0.00,,,0.00,WUHU216HW,2013-08-09 16:21:00,
2013-08-09 11:26:00,74.9,64.1,30.01,SW,225,1.6,5.4,69,0.00,,,0.00,WUHU216HW,2013-08-09 16:26:00,
2013-08-09 11:31:00,74.7,62.6,30.01,SW,225,1.6,5.4,66,0.00,,,0.00,WUHU216HW,2013-08-09 16:31:00,
2013-08-09 11:36:00,74.9,62.7,30.01,NW,315,4.7,6.0,66,0.00,,,0.00,WUHU216HW,2013-08-09 16:36:00,
2013-08-09 11:41:00,74.7,62.1,30.01,West,270,5.4,6.0,65,0.00,,,0.00,WUHU216HW,2013-08-09 16:41:00,
2013-08-09 11:46:00,75.1,62.9,30.01,WNW,293,3.6,6.0,66,0.00,,,0.00,WUHU216HW,2013-08-09 16:46:00,
2013-08-09 11:51:00,75.1,62.5,30.01,NW,315,4.7,6.0,65,0.00,,,0.00,WUHU216HW,2013-08-09 16:51:00,
2013-08-09 11:56:00,75.1,63.4,30.01,NW,315,4.3,7.4,67,0.00,,,0.00,WUHU216HW,2013-08-09 16:56:00,
2013-08-09 12:01:00,76.0,63.4,30.01,NNW,338,6.3,7.4,65,0.00,,,0.00,WUHU216HW,2013-08-09 17:01:00,
2013-08-09 12:06:00,76.5,63.8,30.01,WNW,293,5.4,6.9,65,0.00,,,0.00,WUHU216HW,2013-08-09 17:06:00,
2013-08-09 12:11:00,76.7,63.5,30.01,NNW,338,5.1,6.9,64,0.00,,,0.00,WUHU216HW,2013-08-09 17:11:00,
2013-08-09 12:16:00,76.7,63.5,30.00,NW,315,3.4,6.9,64,0.00,,,0.00,WUHU216HW,2013-08-09 17:16:00,
2013-08-09 12:21:00,76.3,63.2,30.00,West,270,4.0,6.9,64,0.00,,,0.00,WUHU216HW,2013-08-09 17:21:00,
2013-08-09 12:26:00,76.3,63.2,30.00,West,270,2.9,6.3,64,0.00,,,0.00,WUHU216HW,2013-08-09 17:26:00,
2013-08-09 12:31:00,76.1,62.7,30.00,West,270,2.0,6.9,63,0.00,,,0.00,WUHU216HW,2013-08-09 17:31:00,
2013-08-09 12:36:00,76.1,63.1,30.01,NNW,338,4.9,6.9,64,0.00,,,0.00,WUHU216HW,2013-08-09 17:36:00,
2013-08-09 12:41:00,76.1,63.5,30.01,West,270,2.7,6.9,65,0.00,,,0.00,WUHU216HW,2013-08-09 17:41:00,
2013-08-09 12:46:00,76.5,63.8,30.00,NW,315,2.2,6.9,65,0.00,,,0.00,WUHU216HW,2013-08-09 17:46:00,
2013-08-09 12:51:00,77.2,62.3,30.01,NNW,338,5.8,6.9,60,0.00,,,0.00,WUHU216HW,2013-08-09 17:51:00,
2013-08-09 12:56:00,76.9,62.8,30.01,NNW,338,2.7,7.6,62,0.00,,,0.00,WUHU216HW,2013-08-09 17:56:00,
2013-08-09 13:01:00,77.8,62.3,30.01,WNW,293,2.5,7.6,59,0.00,,,0.00,WUHU216HW,2013-08-09 18:01:00,
2013-08-09 13:06:00,78.3,62.4,30.01,NW,315,3.6,6.0,58,0.00,,,0.00,WUHU216HW,2013-08-09 18:06:00,
2013-08-09 13:11:00,78.3,62.8,30.01,NW,315,4.7,7.6,59,0.00,,,0.00,WUHU216HW,2013-08-09 18:11:00,
2013-08-09 13:16:00,78.3,62.4,30.00,West,270,2.9,7.6,58,0.00,,,0.00,WUHU216HW,2013-08-09 18:16:00,
2013-08-09 13:21:00,78.7,62.2,30.00,West,270,2.7,6.7,57,0.00,,,0.00,WUHU216HW,2013-08-09 18:21:00,
2013-08-09 13:26:00,79.2,62.6,30.00,West,270,5.6,8.1,57,0.00,,,0.00,WUHU216HW,2013-08-09 18:26:00,
2013-08-09 13:31:00,79.6,62.5,30.00,NNW,338,3.6,9.6,56,0.00,,,0.00,WUHU216HW,2013-08-09 18:31:00,
2013-08-09 13:36:00,79.2,61.7,30.00,SW,225,1.8,9.6,55,0.00,,,0.00,WUHU216HW,2013-08-09 18:36:00,
2013-08-09 13:41:00,79.7,62.1,30.01,SW,225,5.4,6.3,55,0.00,,,0.00,WUHU216HW,2013-08-09 18:41:00,
2013-08-09 13:46:00,80.1,62.9,30.01,NW,315,4.7,6.3,56,0.00,,,0.00,WUHU216HW,2013-08-09 18:46:00,
2013-08-09 13:51:00,79.6,61.9,30.00,WNW,293,6.0,6.3,55,0.00,,,0.00,WUHU216HW,2013-08-09 18:51:00,
2013-08-09 13:56:00,79.2,61.7,30.01,West,270,4.7,7.4,55,0.00,,,0.00,WUHU216HW,2013-08-09 18:56:00,
2013-08-09 14:01:00,79.4,60.8,30.01,WSW,248,5.4,7.4,53,0.00,,,0.00,WUHU216HW,2013-08-09 19:01:00,
2013-08-09 14:06:00,79.2,61.1,30.00,WSW,248,6.3,8.3,54,0.00,,,0.00,WUHU216HW,2013-08-09 19:06:00,
2013-08-09 14:11:00,79.4,61.7,30.00,NNW,338,4.7,8.3,55,0.00,,,0.00,WUHU216HW,2013-08-09 19:11:00,
2013-08-09 14:16:00,79.9,61.2,30.00,West,270,3.4,6.3,53,0.00,,,0.00,WUHU216HW,2013-08-09 19:16:00,
2013-08-09 14:21:00,79.7,62.1,30.00,WNW,293,5.1,5.4,55,0.00,,,0.00,WUHU216HW,2013-08-09 19:21:00,
2013-08-09 14:26:00,78.8,61.3,30.01,NW,315,4.7,9.2,55,0.00,,,0.00,WUHU216HW,2013-08-09 19:26:00,
2013-08-09 14:31:00,78.3,60.8,30.00,WNW,293,2.9,9.2,55,0.00,,,0.00,WUHU216HW,2013-08-09 19:31:00,
2013-08-09 14:36:00,79.2,61.1,30.00,NW,315,4.7,9.2,54,0.00,,,0.00,WUHU216HW,2013-08-09 19:36:00,
2013-08-09 14:41:00,79.9,61.2,30.00,NNW,338,6.0,9.2,53,0.00,,,0.00,WUHU216HW,2013-08-09 19:41:00,
2013-08-09 14:46:00,79.9,60.7,30.00,NNW,338,5.8,7.8,52,0.00,,,0.00,WUHU216HW,2013-08-09 19:46:00,
2013-08-09 14:51:00,79.6,60.9,30.00,WNW,293,3.4,8.5,53,0.00,,,0.00,WUHU216HW,2013-08-09 19:51:00,
2013-08-09 14:56:00,79.9,60.7,30.00,NW,315,6.5,8.5,52,0.00,,,0.00,WUHU216HW,2013-08-09 19:56:00,
2013-08-09 15:01:00,80.1,60.3,30.00,WSW,248,7.2,8.5,51,0.00,,,0.00,WUHU216HW,2013-08-09 20:01:00,
2013-08-09 15:06:00,79.9,59.0,30.00,WSW,248,6.5,7.2,49,0.00,,,0.00,WUHU216HW,2013-08-09 20:06:00,
2013-08-09 15:11:00,80.3,59.9,29.99,NW,315,4.7,8.5,50,0.00,,,0.00,WUHU216HW,2013-08-09 20:11:00,
2013-08-09 15:16:00,80.3,59.9,30.00,WNW,293,5.4,8.5,50,0.00,,,0.00,WUHU216HW,2013-08-09 20:16:00,
2013-08-09 15:21:00,80.8,59.2,30.00,NW,315,8.7,8.9,48,0.00,,,0.00,WUHU216HW,2013-08-09 20:21:00,
2013-08-09 15:26:00,81.0,58.8,30.00,West,270,8.1,8.9,47,0.00,,,0.00,WUHU216HW,2013-08-09 20:26:00,
2013-08-09 15:31:00,80.6,59.0,30.00,WSW,248,4.7,9.2,48,0.00,,,0.00,WUHU216HW,2013-08-09 20:31:00,
2013-08-09 15:36:00,81.0,58.8,30.00,NW,315,4.0,9.2,47,0.00,,,0.00,WUHU216HW,2013-08-09 20:36:00,
2013-08-09 15:41:00,81.5,59.3,30.00,NW,315,4.7,7.6,47,0.00,,,0.00,WUHU216HW,2013-08-09 20:41:00,
2013-08-09 15:46:00,81.9,58.4,30.00,NW,315,6.3,7.6,45,0.00,,,0.00,WUHU216HW,2013-08-09 20:46:00,
2013-08-09 15:51:00,80.8,57.4,30.00,WNW,293,3.6,9.2,45,0.00,,,0.00,WUHU216HW,2013-08-09 20:51:00,
2013-08-09 15:56:00,81.0,58.1,30.00,West,270,2.5,9.2,46,0.00,,,0.00,WUHU216HW,2013-08-09 20:56:00,
2013-08-09 16:01:00,82.4,60.1,30.00,WSW,248,5.6,6.9,47,0.00,,,0.00,WUHU216HW,2013-08-09 21:01:00,
2013-08-09 16:06:00,82.4,58.9,30.00,NW,315,5.6,8.1,45,0.00,,,0.00,WUHU216HW,2013-08-09 21:06:00,
2013-08-09 16:11:00,82.4,58.9,30.00,NNW,338,5.4,8.1,45,0.00,,,0.00,WUHU216HW,2013-08-09 21:11:00,
2013-08-09 16:16:00,81.4,57.9,30.00,WNW,293,4.9,7.6,45,0.00,,,0.00,WUHU216HW,2013-08-09 21:16:00,
2013-08-09 16:21:00,81.7,58.9,30.00,WNW,293,5.4,7.6,46,0.00,,,0.00,WUHU216HW,2013-08-09 21:21:00,
2013-08-09 16:26:00,82.6,59.1,30.00,West,270,6.7,6.7,45,0.00,,,0.00,WUHU216HW,2013-08-09 21:26:00,
2013-08-09 16:31:00,83.3,58.5,30.00,NW,315,5.4,6.7,43,0.00,,,0.00,WUHU216HW,2013-08-09 21:31:00,
2013-08-09 16:36:00,83.2,59.6,30.00,NW,315,5.4,7.2,45,0.00,,,0.00,WUHU216HW,2013-08-09 21:36:00,
2013-08-09 16:41:00,81.5,58.1,30.00,NW,315,3.8,7.6,45,0.00,,,0.00,WUHU216HW,2013-08-09 21:41:00,
2013-08-09 16:46:00,80.6,57.9,30.00,West,270,1.8,7.6,46,0.00,,,0.00,WUHU216HW,2013-08-09 21:46:00,
2013-08-09 16:51:00,82.1,58.5,30.00,NW,315,7.6,8.3,45,0.00,,,0.00,WUHU216HW,2013-08-09 21:51:00,
2013-08-09 16:56:00,82.3,59.3,30.00,NNW,338,4.5,8.3,46,0.00,,,0.00,WUHU216HW,2013-08-09 21:56:00,
2013-08-09 17:01:00,81.5,58.7,30.00,NW,315,6.9,7.8,46,0.00,,,0.00,WUHU216HW,2013-08-09 22:01:00,
2013-08-09 17:06:00,81.0,58.8,30.00,NNW,338,5.8,8.5,47,0.00,,,0.00,WUHU216HW,2013-08-09 22:06:00,
2013-08-09 17:11:00,80.3,58.1,30.00,NNW,338,5.4,8.5,47,0.00,,,0.00,WUHU216HW,2013-08-09 22:11:00,
2013-08-09 17:16:00,80.3,58.8,30.01,NW,315,4.7,6.9,48,0.00,,,0.00,WUHU216HW,2013-08-09 22:16:00,
2013-08-09 17:21:00,79.9,59.7,30.01,NW,315,3.8,6.3,50,0.00,,,0.00,WUHU216HW,2013-08-09 22:21:00,
2013-08-09 17:26:00,80.6,58.5,30.01,NW,315,6.0,8.5,47,0.00,,,0.00,WUHU216HW,2013-08-09 22:26:00,
2013-08-09 17:31:00,80.8,58.6,30.00,WNW,293,4.7,8.5,47,0.00,,,0.00,WUHU216HW,2013-08-09 22:31:00,
2013-08-09 17:36:00,81.4,59.1,30.00,NW,315,6.7,7.6,47,0.00,,,0.00,WUHU216HW,2013-08-09 22:36:00,
2013-08-09 17:41:00,81.5,59.3,30.00,WNW,293,6.0,8.3,47,0.00,,,0.00,WUHU216HW,2013-08-09 22:41:00,
2013-08-09 17:46:00,80.8,58.6,30.00,NW,315,8.5,8.5,47,0.00,,,0.00,WUHU216HW,2013-08-09 22:46:00,
2013-08-09 17:51:00,80.3,58.1,30.00,West,270,5.4,8.5,47,0.00,,,0.00,WUHU216HW,2013-08-09 22:51:00,
2013-08-09 17:56:00,80.6,57.9,30.00,WSW,248,5.8,7.6,46,0.00,,,0.00,WUHU216HW,2013-08-09 22:56:00,
2013-08-09 18:01:00,81.0,57.0,30.01,West,270,4.7,8.7,44,0.00,,,0.00,WUHU216HW,2013-08-09 23:01:00,
2013-08-09 18:06:00,80.6,56.6,30.01,NW,315,6.7,9.2,44,0.00,,,0.00,WUHU216HW,2013-08-09 23:06:00,
2013-08-09 18:11:00,80.5,57.1,30.01,NW,315,6.3,9.2,45,0.00,,,0.00,WUHU216HW,2013-08-09 23:11:00,
2013-08-09 18:16:00,79.9,57.8,30.01,NNW,338,7.2,7.6,47,0.00,,,0.00,WUHU216HW,2013-08-09 23:16:00,
2013-08-09 18:21:00,79.7,58.2,30.01,NW,315,5.4,7.6,48,0.00,,,0.00,WUHU216HW,2013-08-09 23:21:00,
2013-08-09 18:26:00,79.9,57.8,30.01,NW,315,5.1,7.6,47,0.00,,,0.00,WUHU216HW,2013-08-09 23:26:00,
2013-08-09 18:31:00,79.9,57.8,30.01,NW,315,3.4,6.5,47,0.00,,,0.00,WUHU216HW,2013-08-09 23:31:00,
2013-08-09 18:36:00,79.6,58.2,30.01,WNW,293,3.1,5.1,48,0.00,,,0.00,WUHU216HW,2013-08-09 23:36:00,
2013-08-09 18:41:00,78.8,58.7,30.01,NW,315,3.4,4.7,50,0.00,,,0.00,WUHU216HW,2013-08-09 23:41:00,
2013-08-09 18:46:00,78.5,58.3,30.01,West,270,4.3,6.0,50,0.00,,,0.00,WUHU216HW,2013-08-09 23:46:00,
2013-08-09 18:51:00,78.5,58.3,30.01,NW,315,4.9,6.9,50,0.00,,,0.00,WUHU216HW,2013-08-09 23:51:00,
2013-08-09 18:56:00,78.8,58.1,30.01,NW,315,3.6,6.9,49,0.00,,,0.00,WUHU216HW,2013-08-09 23:56:00,
2013-08-09 19:01:00,78.3,57.6,30.01,NNW,338,3.4,5.4,49,0.00,,,0.00,WUHU216HW,2013-08-10 00:01:00,
2013-08-09 19:06:00,77.4,57.9,30.02,NW,315,2.5,4.0,51,0.00,,,0.00,WUHU216HW,2013-08-10 00:06:00,
2013-08-09 19:11:00,76.7,57.8,30.02,NW,315,2.5,3.8,52,0.00,,,0.00,WUHU216HW,2013-08-10 00:11:00,
2013-08-09 19:16:00,75.6,57.8,30.02,NW,315,2.5,3.6,54,0.00,,,0.00,WUHU216HW,2013-08-10 00:16:00,
2013-08-09 19:21:00,75.1,57.8,30.02,NW,315,1.8,3.6,55,0.00,,,0.00,WUHU216HW,2013-08-10 00:21:00,
2013-08-09 19:26:00,74.9,58.2,30.02,NW,315,1.6,2.9,56,0.00,,,0.00,WUHU216HW,2013-08-10 00:26:00,
2013-08-09 19:31:00,74.7,58.0,30.02,NNW,338,1.8,2.5,56,0.00,,,0.00,WUHU216HW,2013-08-10 00:31:00,
2013-08-09 19:36:00,74.2,57.9,30.02,NW,315,1.8,2.5,57,0.00,,,0.00,WUHU216HW,2013-08-10 00:36:00,
2013-08-09 19:41:00,73.4,58.7,30.02,NW,315,1.6,2.5,60,0.00,,,0.00,WUHU216HW,2013-08-10 00:41:00,
2013-08-09 19:46:00,72.7,58.1,30.02,NW,315,1.3,2.2,60,0.00,,,0.00,WUHU216HW,2013-08-10 00:46:00,
2013-08-09 19:51:00,72.2,58.0,30.03,NW,315,1.3,2.0,61,0.00,,,0.00,WUHU216HW,2013-08-10 00:51:00,
2013-08-09 19:56:00,71.6,57.5,30.03,NW,315,1.6,2.0,61,0.00,,,0.00,WUHU216HW,2013-08-10 00:56:00,
2013-08-09 20:01:00,71.1,57.4,30.03,NW,315,1.6,2.0,62,0.00,,,0.00,WUHU216HW,2013-08-10 01:01:00,
2013-08-09 20:06:00,70.6,57.0,30.03,NW,315,1.3,1.8,62,0.00,,,0.00,WUHU216HW,2013-08-10 01:06:00,
2013-08-09 20:11:00,70.2,57.1,30.03,NW,315,1.1,1.8,63,0.00,,,0.00,WUHU216HW,2013-08-10 01:11:00,
2013-08-09 20:16:00,69.5,57.2,30.03,NW,315,1.6,1.8,65,0.00,,,0.00,WUHU216HW,2013-08-10 01:16:00,
2013-08-09 20:21:00,69.1,56.8,30.03,NW,315,1.6,1.8,65,0.00,,,0.00,WUHU216HW,2013-08-10 01:21:00,
2013-08-09 20:26:00,68.8,56.5,30.03,NNW,338,1.8,2.0,65,0.00,,,0.00,WUHU216HW,2013-08-10 01:26:00,
2013-08-09 20:31:00,68.6,56.4,30.04,NW,315,1.6,2.2,65,0.00,,,0.00,WUHU216HW,2013-08-10 01:31:00,
2013-08-09 20:36:00,68.4,56.2,30.04,NW,315,2.5,2.5,65,0.00,,,0.00,WUHU216HW,2013-08-10 01:36:00,
2013-08-09 20:41:00,68.2,56.0,30.04,NW,315,1.6,2.5,65,0.00,,,0.00,WUHU216HW,2013-08-10 01:41:00,
2013-08-09 20:46:00,68.0,55.8,30.04,NNW,338,2.5,2.5,65,0.00,,,0.00,WUHU216HW,2013-08-10 01:46:00,
2013-08-09 20:51:00,68.4,56.2,30.04,NNW,338,1.8,3.4,65,0.00,,,0.00,WUHU216HW,2013-08-10 01:51:00,
2013-08-09 20:56:00,68.4,55.7,30.04,NW,315,2.7,4.3,64,0.00,,,0.00,WUHU216HW,2013-08-10 01:56:00,
2013-08-09 21:01:00,68.2,56.0,30.04,NW,315,1.6,4.3,65,0.00,,,0.00,WUHU216HW,2013-08-10 02:01:00,
2013-08-09 21:06:00,67.9,55.6,30.04,NW,315,1.3,2.7,65,0.00,,,0.00,WUHU216HW,2013-08-10 02:06:00,
2013-08-09 21:11:00,67.7,55.4,30.05,NW,315,1.8,2.2,65,0.00,,,0.00,WUHU216HW,2013-08-10 02:11:00,
2013-08-09 21:16:00,67.5,55.3,30.05,NNW,338,1.1,2.2,65,0.00,,,0.00,WUHU216HW,2013-08-10 02:16:00,
2013-08-09 21:21:00,67.3,56.0,30.05,WNW,293,1.1,2.2,67,0.00,,,0.00,WUHU216HW,2013-08-10 02:21:00,
2013-08-09 21:26:00,67.3,56.0,30.05,WNW,293,0.2,1.6,67,0.00,,,0.00,WUHU216HW,2013-08-10 02:26:00,
2013-08-09 21:31:00,67.3,56.0,30.06,WNW,293,0.0,1.6,67,0.00,,,0.00,WUHU216HW,2013-08-10 02:31:00,
2013-08-09 21:36:00,67.3,55.5,30.05,WNW,293,0.0,0.7,66,0.00,,,0.00,WUHU216HW,2013-08-10 02:36:00,
2013-08-09 21:41:00,67.1,55.4,30.06,WNW,293,0.0,0.0,66,0.00,,,0.00,WUHU216HW,2013-08-10 02:41:00,
2013-08-09 21:46:00,66.8,55.0,30.06,WNW,293,0.0,0.0,66,0.00,,,0.00,WUHU216HW,2013-08-10 02:46:00,
2013-08-09 21:51:00,66.6,55.3,30.06,WNW,293,0.0,0.0,67,0.00,,,0.00,WUHU216HW,2013-08-10 02:51:00,
2013-08-09 21:56:00,66.2,54.9,30.06,WNW,293,0.0,0.0,67,0.00,,,0.00,WUHU216HW,2013-08-10 02:56:00,
2013-08-09 22:01:00,65.5,54.6,30.06,WNW,293,0.0,0.0,68,0.00,,,0.00,WUHU216HW,2013-08-10 03:01:00,
2013-08-09 22:06:00,65.2,54.7,30.06,WNW,293,0.0,0.0,69,0.00,,,0.00,WUHU216HW,2013-08-10 03:06:00,
2013-08-09 22:11:00,64.6,54.3,30.06,WNW,293,0.0,0.0,69,0.00,,,0.00,WUHU216HW,2013-08-10 03:11:00,
2013-08-09 22:16:00,64.3,54.4,30.06,WNW,293,0.0,0.0,70,0.00,,,0.00,WUHU216HW,2013-08-10 03:16:00,
2013-08-09 22:21:00,63.9,54.4,30.06,WNW,293,0.0,0.0,71,0.00,,,0.00,WUHU216HW,2013-08-10 03:21:00,
2013-08-09 22:26:00,63.5,54.7,30.06,WNW,293,0.0,0.0,73,0.00,,,0.00,WUHU216HW,2013-08-10 03:26:00,
2013-08-09 22:31:00,63.2,54.7,30.06,WNW,293,0.0,0.0,74,0.00,,,0.00,WUHU216HW,2013-08-10 03:31:00,
2013-08-09 22:36:00,63.0,54.5,30.06,WNW,293,0.0,0.0,74,0.00,,,0.00,WUHU216HW,2013-08-10 03:36:00,
2013-08-09 22:41:00,62.8,54.4,30.06,WNW,293,0.0,0.0,74,0.00,,,0.00,WUHU216HW,2013-08-10 03:41:00,
2013-08-09 22:46:00,62.6,53.8,30.07,WNW,293,0.0,0.0,73,0.00,,,0.00,WUHU216HW,2013-08-10 03:46:00,
2013-08-09 22:51:00,62.5,54.0,30.07,WNW,293,0.0,0.0,74,0.00,,,0.00,WUHU216HW,2013-08-10 03:51:00,
2013-08-09 22:56:00,62.3,54.2,30.07,WNW,293,0.0,0.0,75,0.00,,,0.00,WUHU216HW,2013-08-10 03:56:00,
2013-08-09 23:01:00,61.9,53.9,30.07,WNW,293,0.0,0.0,75,0.00,,,0.00,WUHU216HW,2013-08-10 04:01:00,
2013-08-09 23:06:00,61.6,54.3,30.07,WNW,293,0.0,0.0,77,0.00,,,0.00,WUHU216HW,2013-08-10 04:06:00,
2013-08-09 23:11:00,61.2,54.7,30.08,WNW,293,0.0,0.0,79,0.00,,,0.00,WUHU216HW,2013-08-10 04:11:00,
2013-08-09 23:16:00,61.4,54.1,30.08,WNW,293,0.0,0.0,77,0.00,,,0.00,WUHU216HW,2013-08-10 04:16:00,
2013-08-09 23:21:00,61.0,53.8,30.07,WNW,293,0.0,0.0,77,0.00,,,0.00,WUHU216HW,2013-08-10 04:21:00,
2013-08-09 23:26:00,60.8,54.0,30.07,WNW,293,0.0,0.0,78,0.00,,,0.00,WUHU216HW,2013-08-10 04:26:00,
2013-08-09 23:31:00,60.8,54.0,30.08,WNW,293,0.0,0.0,78,0.00,,,0.00,WUHU216HW,2013-08-10 04:31:00,
2013-08-09 23:36:00,60.7,53.8,30.08,WNW,293,0.0,0.0,78,0.00,,,0.00,WUHU216HW,2013-08-10 04:36:00,
2013-08-09 23:41:00,60.5,54.0,30.08,WNW,293,0.0,0.0,79,0.00,,,0.00,WUHU216HW,2013-08-10 04:41:00,
2013-08-09 23:46:00,60.5,54.0,30.08,WNW,293,0.0,0.0,79,0.00,,,0.00,WUHU216HW,2013-08-10 04:46:00,
2013-08-09 23:51:00,60.5,54.4,30.08,WNW,293,0.0,0.7,80,0.00,,,0.00,WUHU216HW,2013-08-10 04:51:00,
2013-08-09 23:56:00,60.7,54.2,30.08,WNW,293,0.0,0.7,79,0.00,,,0.00,WUHU216HW,2013-08-10 04:56:00,